[[{"header":{"parameterUnit":"m.s-1","parameterCategory":1,"la1":30.2991,"la2":30.254,"lo1":-89.0895,"lo2":-89.0444,"dy":0.0017,"dx":0.0017,"nx":28,"ny":28,"refTime":"2025-06-12T09:00:00:Z","depth":0,"parameterNumber":2,"parameterNumberName":"U-component_of_WINDS"},"data":[0,0,0,0,0,0,0,0,0,0,0,0,0,0,0,0,0,0,0,0,0,0,0,0,0,0,0,0,0,0,0,0,0,0,0,0,0,0,0,0,0,0,0,0,0,0,0,0,0,0,0,0,0,0,0,0,0,0,-1.2489,-1.2491,0,-1.2601,-1.2602,-1.2603,-1.2662,-1.2662,-1.2662,-1.2662,-1.2777,-1.278,-1.2783,0,0,0,0,0,0,0,0,0,0,0,0,0,-1.2328,-1.2331,-1.2489,-1.2491,-1.2492,-1.2601,-1.2602,-1.2604,-1.2662,-1.2662,-1.2662,-1.2662,-1.2776,-1.278,-1.2784,0,0,0,0,0,0,0,0,0,0,0,0,0,-1.2415,-1.2332,-1.2489,-1.2534,-1.2539,-1.26,-1.2602,-1.2604,-1.2662,-1.2662,-1.2662,-1.2662,-1.2775,-1.278,-1.2784,-1.2809,0,0,-1.2798,-1.28,0,0,0,0,0,0,0,0,-1.241,-1.2421,-1.2526,-1.2531,-1.2537,-1.2618,-1.2588,-1.2673,-1.2662,-1.2616,-1.2662,-1.2663,-1.2724,-1.2733,-1.2754,-1.2814,-1.2819,-1.2798,-1.2801,-1.2803,-1.2804,0,0,0,0,0,0,0,-1.2404,-1.2416,-1.2533,-1.2528,-1.2534,-1.2549,-1.2562,-1.2604,-1.2668,-1.262,-1.2624,-1.2636,-1.2727,-1.2749,-1.2757,-1.2821,-1.2798,-1.2802,-1.2805,-1.2806,-1.2908,-1.2908,0,0,0,0,0,0,-1.239,-1.2411,-1.253,-1.2537,-1.2472,-1.2552,-1.2566,-1.2592,-1.2667,-1.2679,-1.2636,-1.2639,-1.2741,-1.2751,-1.2761,-1.2795,-1.2803,-1.2807,-1.2809,-1.2908,-1.2908,-1.2908,0,0,0,0,0,0,-1.2387,-1.24,-1.2525,-1.2475,-1.2492,-1.2555,-1.2583,-1.2594,-1.2616,-1.268,-1.2692,-1.2647,-1.2742,-1.2755,-1.2797,-1.28,-1.2809,-1.2813,-1.2908,-1.2908,-1.2908,-1.2864,0,0,0,0,0,0,-1.2382,-1.2399,-1.2408,-1.2475,-1.2495,-1.2559,-1.2583,-1.2596,-1.2623,-1.2628,-1.2693,-1.2704,-1.2743,-1.279,-1.2801,-1.2806,-1.2816,-1.2908,-1.2908,-1.2908,-1.2865,-1.2862,-1.286,0,0,0,0,0,-1.2376,-1.2392,-1.2408,-1.2423,-1.2508,-1.2559,-1.257,-1.2614,-1.2623,-1.2634,-1.2675,-1.2702,-1.2798,-1.2793,-1.2807,-1.2813,-1.2908,-1.2908,-1.2908,-1.2866,-1.2863,-1.286,0,0,0,0,0,0,-1.2324,-1.2401,-1.2421,-1.2459,-1.2502,-1.2568,-1.2583,-1.2609,-1.2651,-1.2653,-1.2707,-1.2721,-1.2758,-1.279,-1.2784,-1.2842,-1.2856,-1.2858,-1.2819,-1.2816,-1.2814,-1.2805,-1.282,0,0,0,0,0,-1.2317,-1.2352,-1.2417,-1.2444,-1.2465,-1.252,-1.2544,-1.2574,-1.2621,-1.264,-1.2684,-1.2729,-1.2769,-1.2795,-1.2835,-1.287,-1.2885,-1.2881,-1.2878,-1.2876,-1.2878,-1.2899,-1.2898,-1.2908,-1.2908,-1.2908,0,0,-1.2303,-1.2349,-1.2368,-1.2435,-1.2472,-1.2507,-1.2535,-1.257,-1.2597,-1.2645,-1.2687,-1.2721,-1.2775,-1.2813,-1.2833,-1.2841,-1.2878,-1.2876,-1.2873,-1.2877,-1.2899,-1.2898,-1.2897,-1.2908,-1.2908,-1.2908,0,0,-1.2296,-1.2334,-1.2361,-1.2397,-1.2452,-1.2489,-1.2495,-1.2559,-1.2583,-1.2626,-1.2663,-1.2695,-1.2764,-1.28,-1.2828,-1.2834,-1.286,-1.2846,-1.2832,-1.2852,-1.2851,-1.285,-1.2853,-1.2853,-1.2847,-1.2847,-1.2847,0,-1.2271,-1.2325,-1.2371,-1.2405,-1.2433,-1.2478,-1.2506,-1.2539,-1.2605,-1.2624,-1.2633,-1.2719,-1.2758,-1.2806,-1.2808,-1.2828,-1.2838,-1.2839,-1.2847,-1.2847,-1.2847,-1.285,-1.2851,-1.2845,-1.2845,-1.2846,-1.2846,0,-1.2292,-1.2329,-1.2344,-1.2406,-1.2436,-1.2467,-1.2518,-1.2543,-1.2571,-1.2607,-1.265,-1.2699,-1.275,-1.2764,-1.2791,-1.2816,-1.2819,-1.2837,-1.2852,-1.2843,-1.2847,-1.2849,-1.2842,-1.2843,-1.2843,-1.2844,0,0,-1.2256,-1.2343,-1.2348,-1.2376,-1.2441,-1.247,-1.2503,-1.2553,-1.2573,-1.2617,-1.2646,-1.2703,-1.272,-1.2751,-1.2783,-1.28,-1.2802,-1.2816,-1.2818,-1.2812,-1.2832,-1.2819,-1.2819,-1.282,-1.282,-1.2821,-1.2828,0,-1.2257,-1.2317,-1.236,-1.2404,-1.2438,-1.2481,-1.251,-1.2553,-1.2587,-1.2622,-1.266,-1.2699,-1.2718,-1.2737,-1.2757,-1.2798,-1.2807,-1.2798,-1.2848,-1.2849,-1.2833,-1.2821,-1.2807,-1.2812,-1.283,-1.283,-1.283,0,-1.2267,-1.2309,-1.2356,-1.2417,-1.2433,-1.2458,-1.2507,-1.254,-1.2589,-1.2613,-1.2648,-1.2681,-1.2717,-1.2729,-1.2781,-1.2773,-1.2796,-1.282,-1.2821,-1.2828,-1.2839,-1.2828,-1.2814,-1.2815,-1.2833,-1.2833,-1.2832,0,-1.2236,-1.2304,-1.2341,-1.2365,-1.2437,-1.2453,-1.2484,-1.2533,-1.2561,-1.2604,-1.2622,-1.2669,-1.2695,-1.2731,-1.2775,-1.278,-1.2823,-1.2838,-1.2844,-1.2843,-1.2851,-1.285,-1.2841,-1.2865,-1.2865,-1.2865,-1.2865,0,-1.2233,-1.2261,-1.2328,-1.2351,-1.2383,-1.2432,-1.2462,-1.2497,-1.254,-1.2571,-1.2611,-1.2639,-1.2697,-1.2732,-1.2767,-1.2805,-1.2816,-1.2837,-1.2846,-1.2833,-1.2831,-1.2849,-1.285,-1.2865,-1.2865,-1.2865,-1.2865,0,-1.2204,-1.225,-1.2294,-1.2358,-1.2375,-1.2395,-1.2451,-1.2475,-1.2511,-1.2549,-1.2561,-1.2618,-1.2662,-1.271,-1.277,-1.2793,-1.2829,-1.2842,-1.2812,-1.2817,-1.282,-1.2819,-1.2823,-1.2826,-1.2848,-1.2848,-1.2847,0,-1.2199,-1.2221,-1.2288,-1.2311,-1.234,-1.2377,-1.2405,-1.2454,-1.2482,-1.254,-1.2557,-1.2603,-1.2643,-1.271,-1.2758,-1.2803,-1.2818,-1.2816,-1.2825,-1.2812,-1.2818,-1.2816,-1.2819,-1.2813,-1.2813,-1.2813,-1.2812,0,-1.2186,-1.2208,-1.2247,-1.2293,-1.2325,-1.2364,-1.2405,-1.2422,-1.2479,-1.2508,-1.2553,-1.2584,-1.2644,-1.269,-1.2742,-1.2774,-1.2803,-1.2809,-1.2813,-1.28,-1.2782,-1.2792,-1.2805,-1.2809,-1.2809,-1.2809,-1.281,-1.281,-1.217,-1.2191,-1.2241,-1.2283,-1.2318,-1.2355,-1.2381,-1.2421,-1.2458,-1.2511,-1.2538,-1.2583,-1.2632,-1.2704,-1.2736,-1.2772,-1.2781,-1.2786,-1.2788,-1.2788,-1.2785,-1.2776,-1.2781,-1.2781,-1.2782,-1.2782,-1.2782,0,-1.2159,-1.2193,-1.2231,-1.2286,-1.2319,-1.2343,-1.2389,-1.2415,-1.2453,-1.2497,-1.2535,-1.2586,-1.2631,-1.2681,-1.2729,-1.2748,-1.2763,-1.2759,-1.2758,-1.2765,-1.2774,-1.2766,-1.2747,-1.2747,-1.2747,-1.2747,-1.2747,-1.2747,-1.2157,-1.2195,-1.2222,-1.2278,-1.2313,-1.2356,-1.238,-1.2415,-1.245,-1.2505,-1.2542,-1.2575,-1.2621,-1.2673,-1.2715,-1.2729,-1.2745,-1.2737,-1.2755,-1.2762,-1.2765,-1.2768,-1.276,-1.274,-1.274,-1.2743,-1.2743,-1.2743]},{"header":{"parameterUnit":"m.s-1","parameterCategory":1,"la1":30.2991,"la2":30.254,"lo1":-89.0895,"lo2":-89.0444,"dy":0.0017,"dx":0.0017,"nx":28,"ny":28,"refTime":"2025-06-12T09:00:00:Z","depth":0,"parameterNumber":3,"parameterNumberName":"V-component_of_WINDS"},"data":[0,0,0,0,0,0,0,0,0,0,0,0,0,0,0,0,0,0,0,0,0,0,0,0,0,0,0,0,0,0,0,0,0,0,0,0,0,0,0,0,0,0,0,0,0,0,0,0,0,0,0,0,0,0,0,0,0,0,4.0694,4.0695,0,4.0819,4.082,4.0822,4.0859,4.0859,4.0858,4.0857,4.0985,4.0989,4.0993,0,0,0,0,0,0,0,0,0,0,0,0,0,4.0487,4.049,4.0693,4.0695,4.0697,4.0819,4.082,4.0822,4.0859,4.0859,4.0858,4.0857,4.0984,4.0988,4.0993,0,0,0,0,0,0,0,0,0,0,0,0,0,4.0591,4.0491,4.0693,4.073,4.0734,4.0818,4.082,4.0822,4.086,4.0859,4.0858,4.0857,4.0982,4.0988,4.0994,4.105,0,0,4.1012,4.1015,0,0,0,0,0,0,0,0,4.0585,4.0598,4.0723,4.0728,4.0733,4.0822,4.0794,4.0899,4.086,4.0812,4.0857,4.0856,4.0932,4.0942,4.0967,4.1056,4.1061,4.1013,4.1016,4.1019,4.1021,0,0,0,0,0,0,0,4.0577,4.0593,4.0743,4.0725,4.0731,4.074,4.0754,4.0814,4.0876,4.0816,4.0819,4.0834,4.0934,4.0961,4.0971,4.1063,4.1013,4.1018,4.1022,4.1024,4.1205,4.1206,0,0,0,0,0,0,4.0564,4.0587,4.0739,4.0747,4.0655,4.0745,4.076,4.0795,4.0875,4.0886,4.0834,4.0835,4.0952,4.0964,4.0975,4.1047,4.1019,4.1024,4.1028,4.1204,4.1205,4.1207,0,0,0,0,0,0,4.0559,4.0577,4.0734,4.0668,4.0688,4.0749,4.0788,4.0798,4.0825,4.0889,4.09,4.0851,4.0951,4.0967,4.1031,4.1052,4.1027,4.1033,4.1202,4.1204,4.1206,4.119,0,0,0,0,0,0,4.0553,4.0575,4.0597,4.0668,4.0692,4.0788,4.0789,4.0801,4.0835,4.0837,4.0907,4.0918,4.0952,4.1022,4.1037,4.106,4.1037,4.1201,4.1203,4.1205,4.1189,4.1191,4.1193,0,0,0,0,0,4.0546,4.0587,4.0598,4.0616,4.072,4.0789,4.0803,4.0841,4.0837,4.0859,4.09,4.0916,4.1047,4.1028,4.1046,4.107,4.12,4.1202,4.1205,4.1188,4.1191,4.1193,0,0,0,0,0,0,4.0517,4.0597,4.061,4.0676,4.0725,4.0795,4.0825,4.0842,4.0894,4.0894,4.0939,4.0954,4.1016,4.1049,4.1027,4.1129,4.1124,4.113,4.1105,4.1108,4.111,4.1101,4.1042,0,0,0,0,0,4.0519,4.0568,4.0635,4.0687,4.0711,4.0763,4.0795,4.082,4.0873,4.0894,4.094,4.0991,4.1044,4.1078,4.113,4.1194,4.121,4.1219,4.1221,4.1223,4.1228,4.1265,4.127,4.1216,4.1216,4.1216,0,0,4.0522,4.0572,4.06,4.0682,4.0724,4.0774,4.0781,4.0833,4.0871,4.0902,4.0967,4.1002,4.1061,4.1126,4.1157,4.1156,4.1246,4.1226,4.1227,4.1231,4.1269,4.1274,4.1278,4.1217,4.1217,4.1217,0,0,4.0554,4.0596,4.0644,4.0686,4.0749,4.0783,4.0795,4.0862,4.0887,4.0952,4.0977,4.1022,4.1112,4.1154,4.1187,4.1235,4.1252,4.1251,4.1261,4.1297,4.1302,4.1306,4.1324,4.133,4.1256,4.1256,4.1256,0,4.055,4.0627,4.0667,4.0719,4.0754,4.0785,4.0834,4.0872,4.0949,4.0973,4.097,4.1085,4.1127,4.1202,4.1214,4.124,4.1255,4.1244,4.1298,4.1302,4.1307,4.1325,4.1331,4.1255,4.1255,4.1255,4.1255,0,4.062,4.0672,4.0704,4.0777,4.0816,4.0866,4.0914,4.0949,4.0971,4.1006,4.1072,4.1124,4.1187,4.1207,4.1229,4.1286,4.1284,4.1289,4.1285,4.1311,4.1329,4.1336,4.1255,4.1255,4.1255,4.1255,0,0,4.0637,4.0733,4.0744,4.0778,4.0849,4.0891,4.0942,4.1005,4.1034,4.1086,4.1131,4.1206,4.1212,4.125,4.1276,4.1308,4.1344,4.131,4.1312,4.1315,4.1411,4.1408,4.1415,4.1355,4.1356,4.1357,4.1407,0,4.0679,4.0773,4.0811,4.0887,4.0936,4.0966,4.1012,4.106,4.1095,4.1142,4.1179,4.1233,4.1236,4.1259,4.1291,4.1332,4.1364,4.1329,4.1398,4.1399,4.1383,4.1424,4.142,4.1464,4.1414,4.1415,4.1416,0,4.0741,4.0793,4.0874,4.0941,4.0963,4.1003,4.1064,4.1108,4.1164,4.1187,4.1229,4.1254,4.131,4.1301,4.1379,4.1354,4.1385,4.1409,4.1412,4.142,4.141,4.1434,4.1479,4.1486,4.1427,4.1426,4.1425,0,4.0747,4.0838,4.0898,4.0926,4.1005,4.1033,4.1067,4.1122,4.1157,4.121,4.1234,4.1292,4.1324,4.1369,4.141,4.1399,4.1484,4.1478,4.1505,4.1504,4.1522,4.152,4.1573,4.1539,4.1539,4.1539,4.1539,0,4.079,4.0839,4.0902,4.094,4.0995,4.1038,4.1092,4.1128,4.1177,4.1222,4.1251,4.1293,4.1343,4.1391,4.1423,4.1483,4.1497,4.1517,4.1525,4.1516,4.1513,4.1536,4.1535,4.1541,4.154,4.154,4.154,0,4.0806,4.0851,4.0919,4.0988,4.1007,4.1045,4.1104,4.1141,4.1177,4.1234,4.1249,4.1305,4.1364,4.1408,4.1484,4.1505,4.1569,4.1577,4.155,4.1555,4.1579,4.1576,4.1649,4.1661,4.1618,4.1619,4.1619,0,4.0832,4.087,4.0943,4.0976,4.1009,4.1061,4.1098,4.1141,4.1178,4.1245,4.1275,4.1335,4.1386,4.1478,4.1525,4.1583,4.1594,4.1615,4.1603,4.1592,4.1595,4.1593,4.1598,4.1617,4.1617,4.1617,4.1618,0,4.0872,4.0892,4.0944,4.1003,4.1046,4.1095,4.1144,4.1169,4.1221,4.1261,4.1322,4.1361,4.1439,4.1499,4.1562,4.1597,4.1616,4.1621,4.163,4.1621,4.1604,4.1615,4.1556,4.1619,4.1619,4.1619,4.1619,4.1619,4.0895,4.093,4.0988,4.1044,4.1086,4.1131,4.1171,4.1211,4.1262,4.1329,4.1351,4.1414,4.147,4.1557,4.1592,4.1642,4.1642,4.1656,4.1659,4.1662,4.1662,4.1596,4.1653,4.1653,4.1653,4.1653,4.1653,0,4.0937,4.0976,4.1027,4.1096,4.114,4.1154,4.121,4.1247,4.1301,4.1352,4.1401,4.1471,4.1529,4.1581,4.1642,4.1672,4.1683,4.1687,4.1685,4.1693,4.1657,4.1644,4.1677,4.1677,4.1677,4.1677,4.1677,4.1677,4.0965,4.1026,4.1053,4.1136,4.1174,4.1236,4.1267,4.1309,4.135,4.1426,4.1475,4.1509,4.156,4.1625,4.168,4.1693,4.1715,4.1717,4.1733,4.1699,4.1696,4.1693,4.168,4.1721,4.1721,4.1765,4.1766,4.1766]}]]